Date String (YYYY-MM-DD hh:mm:ss) UTC,Instrument flags,absolute air pressure of the measurement (hPa),sample flow rate (lpm),inlet stack bypass flow (lpm),air temperature of the measurement (°C),ambient temperature measured by the external sensor (°C),aerosol sample conditioner tube jacket temperature (°C),OPC LED temperature (°C),internal box temperature (°C),relative humidity of the measurement (%),span deviation,mass concentration of particles derived from Lorenz-Mie calculation of OPC scattering (μg/m³),mass concentration of particles derived from Lorenz-Mie calculation of OPC scattering (μg/m³),mass concentration of particles derived from Lorenz-Mie calculation of OPC scattering (μg/m³)
DateTimeUTC,F1_M11,P_M11,Q1_M11,Q2_M11,T1_M11,T2_M11,T3_M11,T4_M11,T5_M11,U1_M11,ZSPAN_M11,X0_M11,X2_M11,X1_M11
2023-10-23 20:00:00,SystemResetWarning,0821.6,5.00,000.00,028.4,027.3,000.0,036.8,030.3,13.4,0000.0,0011.50,0005.17,0004.20
2023-10-23 20:01:00,SystemResetWarning,0821.4,4.98,000.00,028.5,026.7,000.0,036.8,030.3,13.4,0000.0,0011.59,0005.22,0004.21
2023-10-23 20:02:00,SystemResetWarning,0821.4,5.00,000.00,028.4,024.8,000.0,036.7,030.1,13.6,0000.0,0011.50,0005.22,0004.22
2023-10-23 20:03:00,SystemResetWarning,0821.4,5.02,000.00,028.3,024.3,000.0,036.7,029.9,13.7,0000.0,0011.91,0005.21,0004.22
2023-10-23 20:04:00,SystemResetWarning,0821.3,5.01,000.00,028.2,024.5,000.0,036.7,029.8,13.6,0000.0,0013.01,0005.19,0004.23
2023-10-23 20:05:00,SystemResetWarning,0821.3,5.00,000.00,028.2,024.9,000.0,036.7,029.7,13.3,0000.0,0013.45,0005.19,0004.24
2023-10-23 20:06:00,SystemResetWarning,0821.3,5.00,000.00,028.2,025.3,000.0,036.7,029.8,13.2,0000.0,0013.94,0005.17,0004.24
2023-10-23 20:07:00,SystemResetWarning,0821.3,5.01,000.00,028.2,025.8,000.0,036.7,029.8,13.1,0000.0,0014.02,0005.23,0004.26
2023-10-23 20:08:00,SystemResetWarning,0821.3,5.00,000.00,028.2,026.1,000.0,036.7,029.9,13.2,0000.0,0014.13,0005.27,0004.27
2023-10-23 20:09:00,SystemResetWarning,0821.3,5.00,000.00,028.2,026.5,000.0,036.7,030.0,13.3,0000.0,0013.57,0005.26,0004.26
2023-10-23 20:10:00,SystemResetWarning,0821.3,5.00,000.00,028.3,026.8,000.0,036.7,030.1,13.5,0000.0,0013.55,0005.24,0004.25
2023-10-23 20:11:00,SystemResetWarning,0821.3,5.01,000.00,028.3,027.0,000.0,036.7,030.2,13.4,0000.0,0013.80,0005.25,0004.26
2023-10-23 20:12:00,SystemResetWarning,0821.3,5.00,000.00,028.4,027.2,000.0,036.7,030.2,13.3,0000.0,0014.33,0005.21,0004.26
2023-10-23 20:13:00,SystemResetWarning,0821.3,4.99,000.00,028.4,027.4,000.0,036.8,030.3,13.2,0000.0,0014.77,0005.26,0004.27
2023-10-23 20:14:00,SystemResetWarning,0821.3,4.99,000.00,028.5,026.3,000.0,036.8,030.3,12.9,0000.0,0015.00,0005.33,0004.28
2023-10-23 20:15:00,SystemResetWarning,0821.3,5.01,000.00,028.4,024.6,000.0,036.7,030.0,12.9,0000.0,0014.05,0005.35,0004.28
2023-10-23 20:16:00,SystemResetWarning,0821.3,5.00,000.00,028.3,024.3,000.0,036.6,029.9,12.8,0000.0,0014.02,0005.33,0004.28
2023-10-23 20:17:00,SystemResetWarning,0821.2,5.01,000.00,028.2,024.6,000.0,036.6,029.7,13.0,0000.0,0014.15,0005.35,0004.29
2023-10-23 20:18:00,SystemResetWarning,0821.2,5.00,000.00,028.2,025.1,000.0,036.6,029.7,13.0,0000.0,0014.22,0005.33,0004.29
2023-10-23 20:19:00,SystemResetWarning,0821.2,5.01,000.00,028.2,025.5,000.0,036.6,029.8,13.2,0000.0,0014.69,0005.32,0004.28
2023-10-23 20:20:00,SystemResetWarning,0821.2,5.00,000.00,028.2,025.9,000.0,036.7,029.9,13.4,0000.0,0015.07,0005.32,0004.27
2023-10-23 20:21:00,SystemResetWarning,0821.1,4.99,000.00,028.2,026.3,000.0,036.7,030.0,13.2,0000.0,0015.10,0005.32,0004.28
2023-10-23 20:22:00,SystemResetWarning,0821.1,5.00,000.00,028.2,026.6,000.0,036.7,030.0,13.0,0000.0,0015.20,0005.32,0004.26
2023-10-23 20:23:00,SystemResetWarning,0821.2,5.00,000.00,028.3,026.9,000.0,036.7,030.1,12.9,0000.0,0015.73,0005.34,0004.25
2023-10-23 20:24:00,SystemResetWarning,0821.2,5.01,000.00,028.3,027.1,000.0,036.7,030.2,13.0,0000.0,0017.13,0005.35,0004.23
2023-10-23 20:25:00,SystemResetWarning,0821.2,5.01,000.00,028.4,027.3,000.0,036.7,030.3,12.7,0000.0,0017.44,0005.30,0004.21
2023-10-23 20:26:00,SystemResetWarning,0821.1,4.98,000.00,028.4,026.8,000.0,036.7,030.3,12.8,0000.0,0017.42,0005.26,0004.20
2023-10-23 20:27:00,SystemResetWarning,0821.4,5.00,000.00,028.4,025.0,000.0,036.7,030.1,13.1,0000.0,0017.05,0005.23,0004.18
2023-10-23 20:28:00,SystemResetWarning,0821.5,5.00,000.00,028.3,024.3,000.0,036.6,029.9,13.5,0000.0,0016.21,0005.25,0004.19
2023-10-23 20:29:00,SystemResetWarning,0821.2,5.01,000.00,028.2,024.6,000.0,036.6,029.8,13.5,0000.0,0016.16,0005.25,0004.20
2023-10-23 20:30:00,SystemResetWarning,0821.0,5.01,000.00,028.2,025.0,000.0,036.6,029.7,13.6,0000.0,0016.02,0005.23,0004.21
2023-10-23 20:31:00,SystemResetWarning,0821.1,5.00,000.00,028.2,025.4,000.0,036.6,029.7,13.5,0000.0,0015.55,0005.22,0004.20
2023-10-23 20:32:00,SystemResetWarning,0821.1,5.00,000.00,028.2,025.8,000.0,036.6,029.8,13.4,0000.0,0015.69,0005.27,0004.23
2023-10-23 20:33:00,SystemResetWarning,0821.1,5.00,000.00,028.2,026.2,000.0,036.6,029.9,13.4,0000.0,0017.53,0005.33,0004.24
2023-10-23 20:34:00,SystemResetWarning,0821.1,5.00,000.00,028.2,026.6,000.0,036.7,030.0,13.4,0000.0,0017.72,0005.30,0004.24
2023-10-23 20:35:00,SystemResetWarning,0821.1,5.00,000.00,028.3,026.9,000.0,036.7,030.1,13.3,0000.0,0016.58,0005.29,0004.25
2023-10-23 20:36:00,SystemResetWarning,0821.1,4.99,000.00,028.3,027.1,000.0,036.7,030.2,13.2,0000.0,0016.77,0005.30,0004.26
2023-10-23 20:37:00,SystemResetWarning,0821.1,4.99,000.00,028.4,026.9,000.0,036.7,030.2,13.1,0000.0,0016.02,0005.30,0004.27
2023-10-23 20:38:00,SystemResetWarning,0821.1,5.00,000.00,028.3,025.2,000.0,036.7,030.0,13.0,0000.0,0016.80,0005.37,0004.28
2023-10-23 20:39:00,SystemResetWarning,0821.0,5.00,000.00,028.2,024.3,000.0,036.6,029.8,13.1,0000.0,0017.10,0005.43,0004.28
2023-10-23 20:40:00,SystemResetWarning,0821.0,5.01,000.00,028.2,024.5,000.0,036.5,029.8,13.0,0000.0,0016.71,0005.45,0004.28
2023-10-23 20:41:00,SystemResetWarning,0821.0,5.00,000.00,028.1,024.8,000.0,036.5,029.7,13.3,0000.0,0017.63,0005.46,0004.27
2023-10-23 20:42:00,SystemResetWarning,0821.1,5.00,000.00,028.1,025.2,000.0,036.6,029.7,13.4,0000.0,0018.02,0005.50,0004.27
2023-10-23 20:43:00,SystemResetWarning,0821.1,5.00,000.00,028.1,025.7,000.0,036.6,029.8,13.3,0000.0,0018.03,0005.45,0004.28
2023-10-23 20:44:00,SystemResetWarning,0821.0,4.99,000.00,028.1,026.1,000.0,036.6,029.8,13.2,0000.0,0016.65,0005.46,0004.29
2023-10-23 20:45:00,SystemResetWarning,0821.0,5.00,000.00,028.2,026.4,000.0,036.6,029.9,13.1,0000.0,0016.70,0005.52,0004.32
2023-10-23 20:46:00,SystemResetWarning,0821.1,5.00,000.00,028.2,026.7,000.0,036.6,030.0,13.0,0000.0,0016.67,0005.56,0004.33
2023-10-23 20:47:00,SystemResetWarning,0821.0,5.00,000.00,028.2,026.9,000.0,036.6,030.1,12.9,0000.0,0016.02,0005.58,0004.34
2023-10-23 20:48:00,SystemResetWarning,0821.0,5.00,000.00,028.3,027.2,000.0,036.6,030.1,13.0,0000.0,0015.85,0005.59,0004.35
2023-10-23 20:49:00,SystemResetWarning,0820.9,5.00,000.00,028.3,027.3,000.0,036.7,030.2,13.0,0000.0,0015.44,0005.51,0004.36
2023-10-23 20:50:00,SystemResetWarning,0821.0,4.99,000.00,028.4,026.8,000.0,036.7,030.3,13.0,0000.0,0016.31,0005.49,0004.38
2023-10-23 20:51:00,SystemResetWarning,0821.0,5.00,000.00,028.3,025.0,000.0,036.6,030.0,12.9,0000.0,0016.40,0005.51,0004.39
2023-10-23 20:52:00,SystemResetWarning,0821.3,5.01,000.00,028.3,024.3,000.0,036.6,029.9,13.1,0000.0,0015.31,0005.53,0004.41
2023-10-23 20:53:00,SystemResetWarning,0821.2,5.00,000.00,028.2,024.5,000.0,036.5,029.7,13.0,0000.0,0015.00,0005.53,0004.43
2023-10-23 20:54:00,SystemResetWarning,0820.9,4.99,000.00,028.1,024.9,000.0,036.6,029.7,13.2,0000.0,0014.50,0005.54,0004.44
2023-10-23 20:55:00,SystemResetWarning,0821.0,5.00,000.00,028.1,025.4,000.0,036.6,029.7,13.2,0000.0,0014.06,0005.51,0004.44
2023-10-23 20:56:00,SystemResetWarning,0821.1,5.01,000.00,028.1,025.8,000.0,036.6,029.8,13.2,0000.0,0014.00,0005.48,0004.45
2023-10-23 20:57:00,SystemResetWarning,0820.9,5.00,000.00,028.2,026.2,000.0,036.6,029.9,13.1,0000.0,0013.75,0005.51,0004.48
2023-10-23 20:58:00,SystemResetWarning,0821.0,4.99,000.00,028.2,026.5,000.0,036.6,030.0,13.1,0000.0,0013.95,0005.50,0004.47
2023-10-23 20:59:00,SystemResetWarning,0821.0,4.99,000.00,028.2,026.8,000.0,036.6,030.1,13.0,0000.0,0014.51,0005.49,0004.47
